SL-12 DEB, 41807

Orbit data source: Space-Track

SL-12 DEB, 41807 is space debris in HEO originally from a launch on Mon, 25 Dec 2006 UTC launched from the Tyuratam Missile And Space Complex (TTMTR). Debris objects in space refer to the collection of defunct objects orbiting the Earth. Examples of debris include non-operational satellites, rocket bodies, and fragments generated from explosions, collisions, or faulty payload assembly.

Loading next visibility...
Identifier
41807, 2006-062M
Orbit
HEO
Country
Flag of CISCIS
Related business
Manufacturer
RKKE
Mission
Spacecraft
Bus & Motor
Unknown
Mass
Unknown
Launch date (UTC)
2006-12-25 (19 years ago)
Launch vehicle
Unknown
Launch site
Tyuratam Missile And Space Complex (TTMTR)
Object type
Payload
Rocket body
Debris
Shape & HBR
Unknown shape, 0.7 m
Radar Cross Section
Medium (>0.1 m² and <1 m²)

Expand to show TLE details & history
Last TLE update: 14 hours ago

TLE from 14 hours ago
0 SL-12 DEB
1 41807U 06062M   26124.84282140  .00000215  00000-0  75135-3 0  9990
2 41807  64.9813 324.4126 5585842 231.4932  63.8517  4.42851712  7399
Epoch: 2026-05-04T20:13Z
TLE epoch observation values (Epoch: 2026-05-04T20:13:39.768Z)
Latitude
0.00009°
Longitude
158.26654°
Altitude
10,150.743 km
Speed
4.774 km/s
True Right ascension
21h 37m 38s
True Declination
0° 00' 00"
Sunlit
Object was in daylight at epoch
Visualization orbit readout
Latitude
Unknown
Longitude
Unknown
Altitude
Unknown
Speed
Unknown
Apparent Right ascension
Unknown
Apparent Declination
Unknown
Sunlit
N/A
Visualization observer readout
Local Sidereal Time
18:10:24
Azimuth
Unknown
Elevation
Unknown
Doppler factor
Unknown
Orbital elements
Apogee altitude
18,033.403 km
Perigee altitude
535.599 km
Semi-major axis
15,662.638 km
Eccentricity
0.55858
Inclination
64.9813°
RAAN
324.4126°
Arg. of periapsis
231.4932°
True anomaly
128.55769°
Mean anomaly
63.8517°
Eccentric anomaly
95.69808°
Mean motion
1.10725 °/min
Orbital period
325.13 mins
BSTAR
0.00075135
Loading maneuver chart data...
Computing Atmospheric mass density...
Loading historical data...
Loading historical data...
Loading historical data...
Loading historical data...
Loading historical data...
Loading historical data...
Loading historical data...

Documentation

Showing up to 5 results
|